DW9161 Weather Reports


Display with metric or nautical units.
time (UTC)temp
F
wind
direction
speed
MPH
gust
MPH
rain 1hr
in
rain 24hr
in
rain mn
in
humidity
%
barometer
mb
20260906232049 81 120 3.0 7.0 0.00 0.01 0.01 71 1015.2
20260906231546 81 107 2.0 7.0 0.00 0.01 0.01 69 1015.1
20260906231042 82 106 3.0 7.0 0.00 0.01 0.01 68 1014.8
20260906230550 82 105 3.0 5.0 0.00 0.01 0.01 67 1014.8
20260906230031 83 173 1.0 8.0 0.00 0.01 0.01 66 1014.8
20260906225547 84 109 3.0 8.0 0.00 0.01 0.01 66 1014.7
20260906225043 85 79 2.0 7.0 0.00 0.01 0.01 73 1014.6
20260906224539 85 61 2.0 7.0 0.00 0.01 0.01 74 1014.5
20260906224055 85 38 3.0 8.0 0.00 0.01 0.01 75 1014.5
20260906223550 85 335 2.0 11.0 0.00 0.01 0.01 74 1014.3
20260906223046 85 311 5.0 11.0 0.00 0.01 0.01 74 1014.3
20260906222543 86 3 4.0 9.0 0.00 0.01 0.01 73 1014.1
20260906222039 86 342 4.0 11.0 0.00 0.01 0.01 73 1013.8
20260906221535 87 359 4.0 11.0 0.00 0.01 0.01 71 1013.8
20260906221031 88 352 5.0 10.0 0.00 0.01 0.01 70 1013.8
20260906220605 88 350 5.0 10.0 0.00 0.01 0.01 69 1013.8
20260906215548 91 352 3.0 9.0 0.00 0.01 0.01 65 1013.4
20260906215044 92 345 5.0 7.0 0.00 0.01 0.01 60 1013.2
20260906214539 93 259 1.0 5.0 0.00 0.01 0.01 56 1013.1
20260906214054 93 246 2.0 7.0 0.00 0.01 0.01 55 1012.9
20260906213549 93 283 2.0 5.0 0.00 0.01 0.01 56 1012.8
20260906213031 94 214 1.0 5.0 0.00 0.01 0.01 57 1012.8
20260906212546 94 200 3.0 5.0 0.00 0.01 0.01 55 1012.7
20260906212043 94 210 3.0 5.0 0.00 0.01 0.01 54 1012.7
20260906211559 94 215 2.0 9.0 0.00 0.01 0.01 55 1012.7
20260906211034 94 174 5.0 9.0 0.00 0.01 0.01 55 1012.8
20260906210607 94 182 3.0 11.0 0.00 0.01 0.01 55 1012.8
20260906210104 94 202 4.0 11.0 0.00 0.01 0.01 57 1012.6
20260906205535 94 204 5.0 11.0 0.00 0.01 0.01 56 1012.5
20260906205051 94 194 4.0 11.0 0.00 0.01 0.01 57 1012.5
20260906204545 94 205 3.0 11.0 0.00 0.01 0.01 57 1012.4
20260906204042 94 193 4.0 11.0 0.00 0.01 0.01 56 1012.2
20260906203537 94 157 3.0 11.0 0.00 0.01 0.01 56 1012.3
20260906203032 93 232 5.0 7.0 0.00 0.01 0.01 60 1012.4
20260906202549 93 179 5.0 7.0 0.00 0.01 0.01 58 1012.7
20260906202043 93 151 4.0 8.0 0.00 0.01 0.01 59 1012.8
20260906201540 92 179 4.0 8.0 0.00 0.01 0.01 61 1013.1
20260906201036 92 168 3.0 6.0 0.00 0.01 0.01 61 1013.4
20260906200607 91 205 2.0 6.0 0.00 0.01 0.01 61 1013.7
20260906200041 91 197 3.0 5.0 0.00 0.01 0.01 61 1013.9
20260906195624 91 200 2.0 5.0 0.00 0.01 0.01 61 1014.1
20260906195034 91 195 2.0 6.0 0.00 0.01 0.01 60 1014.3
20260906194531 91 210 1.0 7.0 0.00 0.01 0.01 62 1014.4
20260906194046 91 191 4.0 7.0 0.00 0.01 0.01 61 1014.4
20260906193548 91 191 2.0 6.0 0.00 0.01 0.01 61 1014.5
20260906193104 91 148 1.0 5.0 0.00 0.01 0.01 60 1014.5
20260906192541 92 219 1.0 4.0 0.00 0.01 0.01 59 1014.6
20260906192036 93 149 2.0 7.0 0.00 0.01 0.01 59 1014.6
20260906191532 93 219 2.0 7.0 0.00 0.01 0.01 60 1014.8
20260906191047 93 205 3.0 7.0 0.00 0.01 0.01 63 1014.8
20260906190615 92 215 4.0 9.0 0.00 0.01 0.01 64 1014.8
20260906190031 92 205 4.0 9.0 0.00 0.01 0.01 63 1015.0
20260906185542 92 198 1.0 7.0 0.00 0.01 0.01 62 1015.0
20260906185057 91 210 4.0 7.0 0.00 0.01 0.01 64 1015.0
20260906184534 90 133 1.0 5.0 0.00 0.01 0.01 64 1015.1
20260906184050 91 133 2.0 6.0 0.00 0.01 0.01 63 1015.1
20260906183547 90 209 2.0 6.0 0.00 0.01 0.01 67 1015.1
20260906183042 90 195 1.0 6.0 0.00 0.01 0.01 67 1015.2
20260906182602 90 195 4.0 6.0 0.00 0.01 0.01 67 1015.3
20260906182037 89 207 2.0 7.0 0.00 0.01 0.01 67 1015.3
20260906181540 90 191 3.0 7.0 0.00 0.01 0.01 68 1015.4
20260906181036 89 203 3.0 7.0 0.00 0.01 0.01 68 1015.4
20260906180608 89 196 4.0 7.0 0.00 0.01 0.01 69 1015.5
20260906180044 89 158 1.0 7.0 0.00 0.01 0.01 69 1015.5
20260906175540 88 207 2.0 6.0 0.00 0.01 0.01 72 1015.6
20260906175036 87 176 1.0 5.0 0.00 0.01 0.01 71 1015.6
20260906174552 87 127 2.0 8.0 0.00 0.01 0.01 71 1015.7
20260906174046 87 127 3.0 8.0 0.00 0.01 0.01 70 1015.9
20260906173542 86 196 3.0 5.0 0.01 0.01 0.01 71 1015.9
20260906173041 86 216 3.0 7.0 0.01 0.01 0.01 71 1015.8
20260906172537 86 211 4.0 10.0 0.01 0.01 0.01 72 1015.9
20260906172032 86 196 5.0 10.0 0.01 0.01 0.01 72 1016.0
20260906171546 86 199 4.0 9.0 0.01 0.01 0.01 71 1016.0
20260906171042 86 230 4.0 7.0 0.01 0.01 0.01 74 1016.0
20260906170550 86 184 2.0 9.0 0.01 0.01 0.01 73 1016.1
20260906170047 85 199 5.0 9.0 0.01 0.01 0.01 75 1016.2
20260906165543 85 205 2.0 5.0 0.01 0.01 0.01 78 1016.1
20260906165038 84 198 2.0 4.0 0.01 0.01 0.01 80 1016.2
20260906164535 83 158 2.0 4.0 0.01 0.01 0.01 81 1016.3
20260906164030 83 240 1.0 3.0 0.01 0.01 0.01 82 1016.3
20260906163548 82 262 1.0 3.0 0.00 0.00 0.00 82 1016.3
20260906163043 82 264 1.0 3.0 0.00 0.00 0.00 83 1016.5
20260906162541 81 270 1.0 2.0 0.00 0.00 0.00 84 1016.6
20260906162037 81 271 1.0 2.0 0.00 0.00 0.00 86 1016.7
20260906161533 80 271 0.0 2.0 0.00 0.00 0.00 87 1016.7
20260906161034 80 271 0.0 3.0 0.00 0.00 0.00 88 1016.7
20260906160607 80 271 1.0 3.0 0.00 0.00 0.00 89 1016.7
20260906160043 80 271 1.0 3.0 0.00 0.00 0.00 88 1016.8
20260906155535 80 271 0.0 4.0 0.00 0.00 0.00 88 1016.9
20260906155032 80 271 1.0 6.0 0.00 0.00 0.00 87 1016.8
20260906154548 80 273 2.0 6.0 0.00 0.00 0.00 87 1017.1
20260906154045 80 260 0.0 8.0 0.00 0.00 0.00 86 1016.8
20260906153541 80 262 4.0 8.0 0.00 0.00 0.00 86 1017.0
20260906153036 81 218 2.0 4.0 0.00 0.00 0.00 85 1016.6
20260906152531 81 215 0.0 2.0 0.00 0.00 0.00 85 1016.3
20260906152048 81 215 0.0 2.0 0.00 0.00 0.00 84 1016.2
20260906151543 81 215 1.0 6.0 0.00 0.00 0.00 83 1016.2
20260906151038 82 215 1.0 6.0 0.00 0.00 0.00 82 1016.2
20260906150632 82 203 2.0 5.0 0.00 0.00 0.00 81 1016.2
20260906150044 82 205 2.0 5.0 0.00 0.00 0.00 80 1016.2
20260906145539 82 193 2.0 5.0 0.00 0.00 0.00 81 1016.1
20260906145033 82 183 2.0 5.0 0.00 0.00 0.00 81 1016.1
20260906144530 82 212 2.0 3.0 0.00 0.00 0.00 81 1016.0
20260906144046 81 201 2.0 3.0 0.00 0.00 0.00 82 1016.0
20260906143542 81 201 2.0 4.0 0.00 0.00 0.00 82 1016.0
20260906143039 81 203 2.0 4.0 0.00 0.00 0.00 82 1016.0
20260906142533 81 170 1.0 3.0 0.00 0.00 0.00 83 1016.2
20260906142050 81 171 1.0 4.0 0.00 0.00 0.00 83 1016.2
20260906141546 80 171 2.0 4.0 0.00 0.00 0.00 83 1016.2
20260906141045 80 171 1.0 2.0 0.00 0.00 0.00 84 1016.3
20260906140552 80 171 1.0 2.0 0.00 0.00 0.00 84 1016.3
20260906140049 80 171 1.0 3.0 0.00 0.00 0.00 84 1016.4
20260906135545 80 171 1.0 3.0 0.00 0.00 0.00 84 1016.4
20260906135041 80 171 1.0 3.0 0.00 0.00 0.00 84 1016.4
20260906134536 80 171 1.0 4.0 0.00 0.00 0.00 84 1016.3
20260906134032 80 172 1.0 4.0 0.00 0.00 0.00 84 1016.3
20260906133548 79 173 2.0 4.0 0.00 0.00 0.00 85 1016.2
20260906133044 79 174 2.0 4.0 0.00 0.00 0.00 85 1016.2
20260906132540 79 172 2.0 3.0 0.00 0.00 0.00 86 1016.2
20260906132037 78 157 1.0 3.0 0.00 0.00 0.00 86 1016.2
20260906131533 78 157 1.0 2.0 0.00 0.00 0.00 87 1016.2
20260906131050 78 157 1.0 3.0 0.00 0.00 0.00 87 1016.2
20260906130558 78 153 1.0 3.0 0.00 0.00 0.00 87 1016.3
20260906130034 78 153 2.0 3.0 0.00 0.00 0.00 87 1016.2
20260906125530 78 153 1.0 5.0 0.00 0.00 0.00 87 1016.2
20260906125046 78 153 1.0 5.0 0.00 0.00 0.00 87 1016.1
20260906124603 78 155 1.0 3.0 0.00 0.00 0.00 86 1016.0
20260906124043 78 155 1.0 3.0 0.00 0.00 0.00 86 1016.0
20260906123537 78 155 1.0 3.0 0.00 0.00 0.00 86 1015.9
20260906123033 78 155 1.0 4.0 0.00 0.00 0.00 86 1015.8
20260906122548 78 155 2.0 4.0 0.00 0.00 0.00 86 1015.7
20260906122107 78 155 2.0 3.0 0.00 0.00 0.00 86 1015.7
20260906121540 78 155 1.0 3.0 0.00 0.00 0.00 86 1015.6
20260906121037 78 155 1.0 3.0 0.00 0.00 0.00 86 1015.6
20260906120631 78 155 1.0 3.0 0.00 0.00 0.00 86 1015.6
20260906120043 78 155 1.0 3.0 0.00 0.00 0.00 86 1015.5
20260906115538 78 155 1.0 3.0 0.00 0.00 0.00 86 1015.4
20260906115033 78 155 1.0 3.0 0.00 0.00 0.00 86 1015.2
20260906114549 78 155 1.0 3.0 0.00 0.00 0.00 86 1015.2
20260906114046 78 155 2.0 3.0 0.00 0.00 0.00 85 1015.2
20260906113541 78 155 1.0 3.0 0.00 0.00 0.00 85 1015.1
20260906112534 78 155 1.0 3.0 0.00 0.00 0.00 85 1015.2
20260906112049 78 155 1.0 3.0 0.00 0.00 0.00 85 1015.2
20260906111546 78 155 0.0 2.0 0.00 0.00 0.00 85 1015.4
20260906111042 78 155 0.0 2.0 0.00 0.00 0.00 85 1015.5
20260906110549 78 155 1.0 2.0 0.00 0.00 0.00 85 1015.4
20260906110045 78 155 1.0 2.0 0.00 0.00 0.00 85 1015.3
20260906105545 78 155 1.0 2.0 0.00 0.00 0.00 84 1015.2
20260906105043 78 155 1.0 3.0 0.00 0.00 0.00 84 1015.2
20260906104539 78 155 1.0 3.0 0.00 0.00 0.00 84 1015.1
20260906104034 78 155 1.0 3.0 0.00 0.00 0.00 84 1015.1
20260906103529 78 155 1.0 3.0 0.00 0.00 0.00 84 1014.9
20260906103107 78 155 1.0 3.0 0.00 0.00 0.00 84 1014.9
20260906102604 78 155 1.0 3.0 0.00 0.00 0.00 84 1014.9
20260906102037 78 155 1.0 3.0 0.00 0.00 0.00 84 1014.9
20260906101533 78 155 1.0 3.0 0.00 0.00 0.00 84 1014.8
20260906101030 78 155 1.0 3.0 0.00 0.00 0.00 84 1014.8
20260906100625 78 155 2.0 3.0 0.00 0.00 0.00 84 1014.8
20260906100100 78 155 1.0 3.0 0.00 0.00 0.00 83 1014.8
20260906095534 78 155 1.0 3.0 0.00 0.00 0.00 83 1014.9
20260906095030 79 155 1.0 3.0 0.00 0.00 0.00 83 1014.8
20260906094609 79 155 2.0 3.0 0.00 0.00 0.00 83 1014.8
20260906094043 79 155 1.0 3.0 0.00 0.00 0.00 83 1014.8
20260906093559 79 155 2.0 3.0 0.00 0.00 0.00 83 1014.9
20260906093054 79 155 1.0 2.0 0.00 0.00 0.00 83 1014.9
20260906092549 79 155 0.0 2.0 0.00 0.00 0.00 83 1014.9
20260906092106 79 155 0.0 2.0 0.00 0.00 0.00 83 1014.9
20260906091539 79 155 0.0 2.0 0.00 0.00 0.00 83 1014.8
20260906091036 79 155 1.0 2.0 0.00 0.00 0.00 83 1014.8
20260906090608 79 155 1.0 2.0 0.00 0.00 0.00 82 1014.8
20260906090106 79 155 1.0 2.0 0.00 0.00 0.00 82 1014.7
20260906085540 79 155 1.0 2.0 0.00 0.00 0.00 82 1014.8
20260906085056 79 155 1.0 2.0 0.00 0.00 0.00 82 1014.9
20260906084531 79 155 1.0 2.0 0.00 0.00 0.00 82 1014.8
20260906084046 79 155 1.0 3.0 0.00 0.00 0.00 82 1014.8
20260906083543 79 155 2.0 3.0 0.00 0.00 0.00 82 1014.7
20260906083042 79 155 2.0 3.0 0.00 0.00 0.00 82 1014.7
20260906082558 80 155 2.0 3.0 0.00 0.00 0.00 82 1014.6
20260906082052 80 155 2.0 3.0 0.00 0.00 0.00 82 1014.6
20260906081547 80 155 1.0 3.0 0.00 0.00 0.00 81 1014.7
20260906081042 80 155 1.0 2.0 0.00 0.00 0.00 81 1014.6
20260906080549 80 154 1.0 3.0 0.00 0.00 0.00 81 1014.6
20260906080045 80 154 2.0 3.0 0.00 0.00 0.00 81 1014.6
20260906075543 80 154 2.0 3.0 0.00 0.00 0.00 81 1014.5
20260906075038 80 154 2.0 3.0 0.00 0.00 0.00 81 1014.4
20260906074534 80 154 2.0 4.0 0.00 0.00 0.00 80 1014.5
20260906074030 80 154 2.0 4.0 0.00 0.00 0.00 80 1014.5
20260906073546 80 154 2.0 3.0 0.00 0.00 0.00 80 1014.4
20260906073042 80 154 2.0 4.0 0.00 0.00 0.00 80 1014.5
20260906072536 80 154 2.0 4.0 0.00 0.00 0.00 80 1014.6
20260906072032 80 155 2.0 3.0 0.00 0.00 0.00 80 1014.6
20260906071547 80 155 2.0 4.0 0.00 0.00 0.00 80 1014.6
20260906071044 80 155 2.0 4.0 0.00 0.00 0.00 80 1014.7
20260906070552 80 155 2.0 3.0 0.00 0.00 0.00 80 1014.7
20260906070050 80 154 2.0 3.0 0.00 0.00 0.00 80 1014.7
20260906065544 80 154 2.0 3.0 0.00 0.00 0.00 80 1014.8
20260906065040 80 154 2.0 3.0 0.00 0.00 0.00 80 1014.8
20260906064556 81 154 2.0 3.0 0.00 0.00 0.00 80 1014.8
20260906064030 81 154 2.0 3.0 0.00 0.00 0.00 80 1014.9
20260906063546 81 154 2.0 3.0 0.00 0.00 0.00 80 1014.9
20260906063045 81 154 2.0 3.0 0.00 0.00 0.00 80 1015.0
20260906062601 81 154 1.0 3.0 0.00 0.00 0.00 80 1015.0
20260906062055 81 154 2.0 3.0 0.00 0.00 0.00 80 1015.0
20260906061608 81 154 2.0 3.0 0.00 0.00 0.00 80 1014.9
20260906061046 81 154 2.0 3.0 0.00 0.00 0.00 79 1014.9
20260906060555 81 154 2.0 4.0 0.00 0.00 0.00 79 1014.9
20260906060033 81 154 2.0 5.0 0.00 0.00 0.00 79 1014.9
20260906055547 82 154 2.0 5.0 0.00 0.00 0.00 78 1014.8
20260906055044 82 154 3.0 4.0 0.00 0.00 0.00 78 1014.9
20260906054559 82 155 2.0 4.0 0.00 0.00 0.00 78 1014.9
20260906054033 82 160 3.0 4.0 0.00 0.00 0.00 78 1014.8
20260906053548 82 160 2.0 4.0 0.00 0.00 0.00 78 1014.8
20260906053044 82 160 2.0 4.0 0.00 0.00 0.00 78 1014.8
20260906052540 82 160 3.0 4.0 0.00 0.00 0.00 78 1014.9
20260906052037 82 162 2.0 4.0 0.00 0.00 0.00 78 1014.9
20260906051533 82 162 2.0 4.0 0.00 0.00 0.00 77 1014.9
20260906051051 82 162 3.0 4.0 0.00 0.00 0.00 78 1014.9
20260906050557 82 165 2.0 4.0 0.00 0.00 0.00 77 1015.0
20260906050030 82 165 2.0 4.0 0.00 0.00 0.00 77 1015.0
20260906045538 82 165 2.0 3.0 0.00 0.00 0.00 76 1014.9
20260906045048 83 165 2.0 4.0 0.00 0.00 0.00 76 1015.0
20260906044543 83 165 2.0 4.0 0.00 0.00 0.00 75 1015.0
20260906044038 83 165 2.0 4.0 0.00 0.00 0.00 75 1015.0
20260906043534 83 166 3.0 4.0 0.00 0.00 0.00 75 1014.9
20260906043049 83 167 2.0 3.0 0.00 0.00 0.00 76 1015.0
20260906042546 83 167 2.0 4.0 0.00 0.00 0.00 76 1015.0
20260906042044 83 167 2.0 4.0 0.00 0.00 0.00 75 1015.1
20260906041535 83 167 2.0 4.0 0.00 0.00 0.00 76 1015.0
20260906041113 83 167 2.0 4.0 0.00 0.00 0.00 76 1015.0
20260906040558 83 170 3.0 4.0 0.00 0.00 0.00 76 1015.0
20260906040038 83 171 2.0 4.0 0.00 0.00 0.00 76 1015.0
20260906035556 83 171 2.0 4.0 0.00 0.00 0.00 76 1015.0
20260906035033 84 171 3.0 3.0 0.00 0.00 0.00 75 1014.9
20260906034551 84 171 2.0 3.0 0.00 0.00 0.00 75 1015.0
20260906034050 84 171 2.0 3.0 0.00 0.00 0.00 75 1015.0
20260906033532 84 171 2.0 3.0 0.00 0.00 0.00 75 1014.8
20260906033050 84 171 2.0 4.0 0.00 0.00 0.00 75 1014.8
20260906032547 84 171 2.0 4.0 0.00 0.00 0.00 75 1014.8
20260906032108 84 172 2.0 4.0 0.00 0.00 0.00 75 1014.8
20260906031545 84 172 2.0 4.0 0.00 0.00 0.00 75 1014.6
20260906031044 84 172 2.0 4.0 0.00 0.00 0.00 75 1014.5
20260906030551 84 172 2.0 4.0 0.00 0.00 0.00 75 1014.4
20260906030031 84 172 2.0 4.0 0.00 0.00 0.00 75 1014.2
20260906025549 85 172 2.0 4.0 0.00 0.00 0.00 75 1014.2
20260906025047 85 173 2.0 4.0 0.00 0.00 0.00 75 1014.1
20260906024606 85 174 2.0 4.0 0.00 0.00 0.00 75 1014.2
20260906024103 85 176 2.0 4.0 0.00 0.00 0.00 75 1014.1
20260906023539 85 179 3.0 4.0 0.00 0.00 0.00 75 1014.0
20260906023050 85 186 2.0 4.0 0.00 0.00 0.00 75 1014.1
20260906022544 85 188 1.0 3.0 0.00 0.00 0.00 75 1014.1
20260906022103 85 188 2.0 3.0 0.00 0.00 0.00 75 1014.0
20260906021537 85 188 2.0 4.0 0.00 0.00 0.00 75 1013.8
20260906021054 85 190 2.0 4.0 0.00 0.00 0.00 75 1013.7
20260906020605 85 191 2.0 3.0 0.00 0.00 0.00 75 1013.5
20260906020039 85 191 2.0 3.0 0.00 0.00 0.00 75 1013.5
20260906015537 85 191 1.0 3.0 0.00 0.00 0.00 74 1013.4
20260906015102 86 191 2.0 3.0 0.00 0.00 0.00 74 1013.4
20260906014544 86 191 2.0 3.0 0.00 0.00 0.00 74 1013.3
20260906014036 86 191 1.0 3.0 0.00 0.00 0.00 74 1013.3
20260906013548 86 191 1.0 3.0 0.00 0.00 0.00 74 1013.1
20260906013034 86 191 1.0 3.0 0.00 0.00 0.00 73 1013.2
20260906012543 86 191 1.0 2.0 0.00 0.00 0.00 73 1013.1
20260906012054 86 191 1.0 3.0 0.00 0.00 0.00 73 1013.1
20260906011548 87 191 2.0 3.0 0.00 0.00 0.00 72 1013.0
20260906011050 87 191 1.0 3.0 0.00 0.00 0.00 72 1012.9
20260906010611 87 191 1.0 3.0 0.00 0.00 0.00 72 1012.9
20260906010039 87 191 1.0 3.0 0.00 0.00 0.00 72 1012.9
20260906005535 87 191 1.0 3.0 0.00 0.00 0.00 71 1012.8
20260906005049 87 191 1.0 2.0 0.00 0.00 0.00 71 1012.9
20260906004540 88 191 1.0 3.0 0.00 0.00 0.00 70 1012.9
20260906004053 88 191 2.0 3.0 0.00 0.00 0.00 70 1012.8
20260906003548 88 191 1.0 3.0 0.00 0.00 0.00 70 1012.8
20260906003035 89 191 2.0 3.0 0.00 0.00 0.00 70 1012.8
20260906002556 89 191 2.0 3.0 0.00 0.00 0.00 69 1012.7
20260906002057 89 191 1.0 3.0 0.00 0.00 0.00 68 1012.7
20260906001610 90 191 2.0 3.0 0.00 0.00 0.00 68 1012.7
20260906001045 90 193 2.0 3.0 0.00 0.00 0.00 68 1012.8
20260906000628 90 193 1.0 4.0 0.00 0.00 0.00 67 1012.7
20260906000036 90 193 2.0 4.0 0.00 0.00 0.00 66 1012.8
20260905235548 91 195 2.0 3.0 0.00 0.00 0.00 66 1012.8
20260905235044 91 195 1.0 3.0 0.00 0.00 0.00 66 1012.7
20260905234536 91 195 1.0 3.0 0.00 0.00 0.00 66 1012.8
20260905234100 91 195 2.0 4.0 0.00 0.00 0.00 64 1012.7
20260905233543 92 198 1.0 4.0 0.00 0.00 0.00 65 1012.7
20260905233035 92 178 2.0 4.0 0.00 0.00 0.00 64 1012.8
20260905232541 92 178 2.0 4.0 0.00 0.00 0.00 63 1012.7